Погода в Пембе

Россия / Республика Марий Эл     56°30′52″N   48°03′10″E
темп.,
°C
ветер,
м/с
пор.,
м/с
влажн.,
%
обл.,
%
осадки,
мм/ч
давл.,
гПа
погр.,
м
25 февраля, чт
чт2500:00−24ююз229598 0.0 103420
03:00−24ю239898 0.0 103366
06:00−22ю3795100 0.0 1030230
09:00−20ююв4993100 0.0 1027301
12:00−17ююв61296100 0.3 1023435
15:00−15ююв51195100 1.3 1021593
18:00−15ююв51095100 1.1 1018632
21:00−15ююв41094100 1.6 1018502
26 февраля, пт
пт2600:00−16юв4994100 0.1 1016398
03:00−16юв4995100 0.2 1017377
06:00−17юв3895100 0.1 1015331
09:00−15ююв489498 0.3 1014370
12:00−11юв5993100 0.1 1012441
15:00−10юв61293100 0.2 1008487
18:00−9юв71494100 1.3 1003521
21:00−7ююв71495100 5.6 998540
27 февраля, сб
сб2700:00−6ююв4996100 3.3 994272
03:00−1юз2899100 4.5 993356
06:000зюз4898100 0.6 992527
09:000зюз36100100 1.7 992378
12:000сз25100100 1.0 993269
15:00−6с5994100 1.7 996424
18:00−11с4993100 0.3 1001607
21:00−12с4993100 0.3 1004422
28 февраля, вс
вс2800:00−16ссз379689 0.0 1004173
03:00−19ссз359771 0.0 100697
06:00−20ссз259969 0.0 100896
09:00−17с379469 0.0 1009279
12:00−14с479083 0.0 1011503
15:00−13с488982 0.0 1012654
18:00−16с2596100 0.1 1014119
21:00−19с239791 0.1 101777
1 марта, пн
пн100:00−20ссз23980 0.0 101848
03:00−21ссз23980 0.0 102064
06:00−22ссз23980 0.0 102236
09:00−18ссз24950 0.0 1023196
12:00−12сз248852 0.0 1024396
15:00−10з249275 0.0 1023433
18:00−11юз3697100 0.0 1022187
21:00−9юз3895100 0.3 1020347